CAPE
1253 1266 1490 1649 1965 1640 159 77 74 142 200 244 215 39 79 7 1 5 23 109 203 290 315 386 1383 1328 1554 1566 1767 1225 1565 1565 2033 1562 1736 1860 1504 1579 1651 1635 1872 1862 2068 1990 1744 1641 1034 1022 1267
1648 1709 1831 2198 1840 247 233 175 105 238 223 334 284 285 108 100 6 12 69 265 255 554 470 478 1688 1829 1258 1377 1315 1604 1275 1300 1276 1574 1972 1542 1793 1689 1532 1499 1627 1894 1746 1827 1781 1474 1122 1320 704
2277 1902 2535 2272 581 311 225 159 117 176 281 360 467 323 522 754 63 171 318 194 467 556 591 713 1602 2000 1560 1353 1276 1554 1200 1234 1311 1317 1609 1563 1701 1553 1485 1445 1635 1496 1540 1281 1598 1886 1681 1226 1079
2192 2542 2801 1994 261 246 393 262 144 177 222 411 416 652 644 546 489 914 624 526 531 473 665 1156 1744 1275 1697 1784 1279 1083 1109 1148 1261 1474 1362 1508 1554 1629 1525 1704 1662 1477 1504 1170 909 760 794 1008 1106
1987 2051 893 263 238 231 282 307 384 273 198 465 590 799 944 943 843 751 543 609 207 400 408 837 2000 1866 1779 1409 1200 1123 1124 1134 1255 1021 1415 1350 1577 1393 1462 1599 1333 1294 1314 1315 1240 1340 805 835 923
1747 995 230 198 159 313 328 249 224 194 264 269 990 1144 1082 1087 955 811 524 218 126 214 292 413 1561 1745 1505 1474 1442 1374 1347 1290 1025 1165 1264 1280 1205 1154 1207 1318 1313 1299 1170 1179 1215 1216 1121 743 590
1711 629 240 177 343 318 352 375 263 193 151 625 1037 1199 1084 1296 1061 994 509 333 202 126 147 150 498 1022 1333 1256 1507 1359 1135 1022 956 969 914 853 840 879 855 845 897 878 848 780 740 784 863 881 723
1295 1240 197 69 271 485 393 308 174 249 360 553 1212 1157 1281 1129 1228 896 542 491 311 179 104 181 420 382 686 894 1409 1335 1185 1043 961 763 686 652 633 624 631 673 678 658 691 1011 959 1138 811 654 771
652 309 203 193 225 483 538 326 428 185 301 513 616 1017 1212 1174 1237 1013 673 665 564 243 177 148 238 480 1034 1067 1177 1353 1227 1109 992 893 793 576 809 1082 1316 1263 846 851 1380 1244 1186 1227 1164 1503 1226
577 45 311 456 559 497 324 451 317 503 404 443 756 1189 1048 1058 1118 1110 884 723 558 491 379 390 369 436 603 976 1650 1616 1147 825 881 942 1478 1188 949 1084 1010 1168 1095 1092 1251 1384 1557 1391 1489 1282 1189
54 330 541 702 856 647 464 415 377 468 311 361 862 1105 1028 1021 931 913 761 686 625 579 473 396 580 755 547 1489 1585 1247 1399 989 670 630 580 1015 624 1143 543 1638 1483 2164 1740 1575 1149 1560 1568 89 1334
359 370 698 710 816 690 793 631 349 552 161 318 635 845 941 917 833 735 742 643 614 638 570 483 640 859 678 831 1241 1083 969 434 698 594 864 1507 1632 1768 1536 2007 1726 1633 1166 1707 2222 1318 1033 1673 1226
378 487 607 713 740 889 878 758 442 569 105 186 360 533 624 670 588 543 513 459 459 573 596 577 882 1133 1010 1248 699 766 471 247 719 1006 1182 2353 1909 1968 2612 1504 1424 1632 1335 1503 1188 428 1495 1151 672
127 384 575 702 897 862 887 995 798 718 232 149 230 247 300 308 299 318 361 422 438 387 371 459 739 1237 1089 913 952 546 382 626 1276 1365 2150 1570 1720 2020 1904 1420 1409 2235 2387 1630 1673 1105 513 740 977
246 578 626 816 898 899 903 974 1072 838 627 336 414 364 213 245 201 207 281 385 498 450 348 515 505 918 1181 1129 1162 915 567 723 808 1592 1333 1605 1865 2270 2433 2660 1508 2525 2727 1201 666 1144 1167 253 977
334 368 774 705 906 1057 646 975 998 988 849 755 485 583 504 210 156 168 233 229 339 374 525 631 371 463 824 739 1099 965 910 1156 1597 1574 1976 1878 2105 2392 2270 2188 1722 2439 1823 2263 1485 1203 908 657 1763
45 46 121 593 780 885 1022 1005 1055 1074 990 816 620 738 678 438 503 416 416 410 406 397 543 623 433 413 613 889 1167 1265 1258 1316 1827 1278 1560 2196 1825 2067 2112 2137 2292 2198 2602 2227 1592 1559 1031 795 803
1 17 38 348 657 829 1107 1041 1000 1032 1015 938 653 621 766 693 587 670 729 661 579 556 611 641 626 689 1062 1172 1318 1145 1097 1148 1241 1218 1299 2205 2208 2428 2170 2098 2086 1922 1502 1846 1894 1679 1940 1890 1851
0 4 57 64 465 811 1006 1014 1046 906 1014 976 727 486 580 669 620 793 869 716 710 846 880 912 951 1230 1359 1426 1510 1330 1138 1025 1024 955 1360 1897 2290 2453 1894 2469 1695 1884 1557 1772 1739 1504 1153 1570 1169
0 2 16 53 12 501 678 1018 1111 987 914 1058 884 646 404 571 600 794 824 830 764 938 1202 1316 1333 1621 1736 1508 1337 1269 1170 969 1070 963 1661 2017 2312 2238 2317 2226 2305 1609 1843 2231 1678 1774 2039 1771 1976
1 0 0 1 14 439 409 761 1184 1095 947 984 980 796 389 340 514 650 728 822 887 1006 1252 1592 1830 1905 2001 2097 1556 1404 1527 1616 1056 1155 1544 1883 2453 2086 2487 2477 2455 1685 1720 2779 1965 1651 1761 2263 2121
3 0 0 0 10 379 124 5 657 1223 1033 916 1001 938 508 149 357 476 598 724 813 985 1239 1501 1873 2140 2317 2229 2088 2097 1424 1245 870 1246 1435 2098 2406 1792 2292 2662 2197 1641 1318 2025 2634 2786 2060 2092 1906
0 0 0 0 0 27 312 357 987 958 1158 1071 850 901 775 273 103 348 422 608 662 794 930 1433 2135 3094 2787 2838 3323 1873 1873 1243 1282 1231 3029 2292 2491 1974 2062 2715 2191 1455 1658 1869 1186 1689 1566 1612 1515
0 0 0 0 1 133 74 222 37 930 951 1133 1086 884 856 537 76 117 304 442 456 588 674 994 2078 2958 2868 2575 2701 2654 2111 2305 1448 2003 2414 1826 1680 2252 1640 2904 2926 1534 1480 1404 1430 1396 1255 1589 1661
0 0 6 27 93 177 194 39 83 405 502 923 1162 1076 955 826 211 104 269 265 298 403 533 826 1648 2374 2593 2566 2542 2620 2432 2470 2009 2619 2063 2036 1394 1401 2656 3145 3148 2835 1511 1286 1369 1288 1247 932 1151
3 0 12 49 65 31 40 368 191 627 500 650 1040 1141 1017 997 499 121 275 364 284 278 482 656 1348 2320 2509 2602 3397 3887 3934 2173 2138 2274 2187 1799 1508 1594 3183 2978 3048 3088 2346 1486 1507 1404 807 586 414
0 2 0 0 0 9 12 529 424 980 886 661 845 1090 1166 1038 843 361 250 345 324 292 482 678 1117 2172 2412 2286 2975 4111 3966 3522 2380 3416 2895 2058 2046 1970 2957 2988 2904 3161 3016 2444 2159 1624 673 500 247
0 0 1 0 39 69 37 133 38 670 1283 1224 859 1110 1253 1151 991 751 553 334 436 393 468 529 1005 1570 2169 2015 2484 2660 3004 3327 2906 2664 3076 2326 2238 3149 2812 3442 3232 3390 3278 3035 2786 2024 1488 792 381
0 0 0 13 18 50 63 639 480 613 1279 1512 1381 1265 1295 1267 1207 1098 829 583 543 544 461 303 742 1236 1869 2152 2996 3500 3058 2722 2631 2229 2666 2808 2217 3348 3507 3597 3632 3590 3613 3333 3267 2492 2184 1216 765
0 64 50 97 162 79 25 731 1002 1031 991 1572 2009 1764 1801 1475 1280 1342 1137 960 823 634 810 969 968 1112 1874 3258 3762 3635 2723 2853 2223 2382 2380 3573 3606 3010 4437 4362 4124 3842 3621 4190 3421 2882 2116 1761 1054
CIN
-45 -29 -21 -8 -0 -26 -1 -2 -0 -1 -0 -0 -1 -23 -56 -34 -7 -16 -44 -36 -43 -33 -6 -13 -3 -0 -0 -0 -0 -3 -0 -0 -0 -0 -0 -0 -0 -0 -0 -0 -0 -0 -0 -0 -0 -0 -0 -0 -0
-32 -10 -1 -0 -15 -1 -3 -0 -5 -0 -0 -0 -0 -0 -22 -57 -53 -92 -20 -18 -25 -1 -1 -9 -1 -0 -2 -1 -2 -0 -0 -0 -0 -0 -0 -0 -0 -0 -0 -0 -0 -0 -0 -0 -0 -0 -0 -0 -9
-8 -18 -0 -8 -11 -0 -1 -1 -4 -0 -1 -0 -0 -1 -0 -17 -32 -43 -6 -11 -9 -3 -4 -0 -0 -0 -0 -0 -0 -0 -0 -0 -0 -0 -0 -0 -0 -0 -0 -0 -0 -0 -0 -0 -0 -0 -0 -0 -1
-7 -1 -0 -17 -0 -3 -0 -0 -0 -0 -3 -0 -0 -0 -0 -4 -9 -0 -0 -0 -2 -2 -1 -0 -0 -0 -0 -0 -0 -0 -0 -0 -0 -0 -0 -0 -0 -0 -0 -0 -0 -0 -0 -0 -1 -3 -1 -0 -0
-1 -0 -40 -0 -0 -3 -0 -0 -0 -1 -4 -0 -0 -0 -0 -0 -2 -3 -2 -0 -9 -0 -3 -0 -0 -0 -0 -0 -0 -0 -0 -0 -0 -0 -0 -0 -0 -0 -0 -0 -0 -0 -0 -0 -0 -0 -1 -7 -7
-0 -62 -60 -12 -0 -0 -0 -0 -0 -4 -0 -0 -0 -0 -0 -7 -0 -6 -0 -1 -31 -10 -23 -28 -0 -0 -0 -0 -0 -0 -0 -0 -2 -0 -0 -0 -0 -0 -0 -0 -0 -0 -0 -0 -0 -0 -0 -9 -20
-3 -144 -7 -4 -0 -0 -0 -1 -2 -2 -3 -0 -0 -0 -0 -0 -5 -1 -1 -0 -8 -24 -36 -27 -5 -1 -1 -1 -2 -0 -0 -0 -0 -0 -0 -6 -3 -10 -1 -1 -0 -0 -0 -0 -0 -0 -0 -1 -10
-16 -23 -2 -9 -1 -0 -0 -0 -2 -0 -0 -0 -0 -5 -0 -0 -0 -7 -4 -2 -1 -15 -61 -12 -0 -5 -0 -0 -0 -0 -0 -0 -0 -1 -12 -12 -30 -26 -25 -23 -22 -15 -6 -0 -0 -0 -3 -9 -13
-1 -81 -3 -21 -11 -0 -0 -0 -0 -20 -10 -0 -1 -2 -0 -0 -0 -0 -0 -0 -2 -8 -13 -16 -10 -3 -4 -1 -0 -0 -0 -0 -0 -7 -15 -48 -10 -7 -12 -12 -24 -20 -0 -0 -0 -0 -2 -3 -12
-16 -38 -5 -6 -5 -0 -0 -0 -0 -0 -1 -1 -0 -0 -0 -0 -0 -0 -0 -0 -0 -0 -0 -3 -3 -12 -0 -8 -4 -0 -0 -0 -1 -1 -9 -10 -19 -10 -3 -10 -26 -23 -9 -5 -2 -3 -6 -29 -1
-34 -0 -0 -0 -0 -1 -0 -0 -1 -0 -0 -9 -4 -1 -0 -0 -0 -0 -0 -0 -1 -0 -0 -0 -1 -0 -0 -9 -9 -0 -1 -16 -0 -0 -0 -0 -2 -21 -50 -2 -12 -0 -14 -3 -16 -6 -4 -71 -15
-3 -40 -1 -6 -8 -0 -1 -0 -1 -1 -30 -32 -22 -11 -1 -0 -0 -0 -0 -0 -0 -0 -0 -1 -0 -0 -0 -0 -1 -7 -12 -1 -14 -1 -6 -0 -6 -6 -0 -18 -48 -21 -23 -4 -2 -36 -28 -3 -41
-0 -5 -22 -13 -27 -0 -0 -0 -0 -0 -75 -79 -57 -37 -9 -0 -0 -0 -0 -0 -0 -0 -2 -0 -0 -0 -0 -1 -0 -1 -2 -2 -1 -0 -1 -1 -18 -2 -19 -0 -0 -2 -50 -3 -1 -7 -2 -21 -46
-23 -19 -17 -28 -10 -0 -0 -0 -0 -0 -37 -94 -80 -87 -86 -51 -19 -14 -8 -5 -1 -7 -16 -5 -3 -1 -0 -0 -1 -0 -3 -1 -3 -14 -8 -0 -10 -7 -45 -0 -0 -13 -6 -9 -5 -15 -51 -25 -9
-17 -20 -27 -30 -18 -8 -0 -0 -0 -0 -1 -41 -33 -40 -94 -95 -80 -59 -21 -9 -2 -3 -14 -4 -10 -4 -5 -2 -1 -0 -0 -0 -0 -4 -0 -2 -0 -2 -5 -2 -0 -7 -25 -43 -43 -10 -4 -52 -15
-3 -0 -0 -13 -17 -3 -4 -3 -0 -2 -0 -0 -16 -10 -22 -97 -117 -94 -53 -39 -19 -6 -5 -3 -15 -10 -13 -10 -1 -0 -0 -0 -19 -1 -16 -1 -0 -0 -0 -17 -2 -10 -1 -2 -6 -0 -2 -3 -0
-1 -2 -0 -11 -19 -5 -8 -1 -0 -0 -0 -0 -3 -0 -5 -25 -11 -23 -26 -14 -8 -10 -19 -13 -26 -15 -10 -2 -0 -0 -0 -1 -5 -0 -19 -4 -0 -0 -1 -14 -11 -0 -3 -1 -0 -1 -0 -0 -2
-6 -0 -1 -2 -12 -11 -2 -1 -11 -3 -0 -0 -5 -10 -0 -1 -1 -1 -0 -0 -1 -5 -26 -29 -24 -10 -0 -0 -0 -0 -0 -0 -1 -0 -5 -1 -9 -0 -0 -11 -3 -0 -2 -3 -1 -4 -2 -8 -16
-0 -13 -4 -2 -10 -5 -0 -0 -4 -15 -0 -0 -5 -24 -14 -0 -0 -0 -0 -0 -1 -0 -13 -21 -9 -2 -0 -0 -0 -0 -0 -0 -0 -1 -0 -1 -0 -1 -2 -1 -1 -1 -0 -0 -0 -0 -0 -5 -1
-0 -0 -0 -5 -16 -6 -2 -0 -13 -31 -18 -0 -4 -11 -30 -4 -3 -0 -1 -0 -0 -0 -3 -12 -4 -2 -2 -0 -0 -0 -0 -0 -0 -1 -0 -0 -0 -0 -1 -2 -1 -6 -5 -4 -1 -2 -3 -23 -19
-0 -0 -0 -1 -7 -3 -2 -39 -0 -32 -31 -3 -1 -2 -26 -23 -1 -0 -0 -0 -0 -0 -0 -7 -14 -3 -9 -0 -0 -0 -0 -4 -0 -0 -0 -0 -0 -0 -0 -0 -0 -0 -3 -3 -1 -0 -0 -0 -26
-0 -0 -0 -0 -6 -0 -3 -60 -42 -20 -26 -36 -8 -1 -18 -70 -11 -4 -0 -0 -0 -0 -0 -0 -16 -14 -6 -7 -0 -0 -0 -0 -0 -0 -0 -1 -2 -1 -0 -0 -0 -0 -1 -0 -4 -2 -0 -0 -2
-0 -0 -0 -0 -0 -19 -0 -40 -0 -10 -15 -23 -31 -28 -26 -57 -68 -6 -2 -1 -1 -1 -0 -1 -8 -4 -3 -1 -3 -0 -2 -0 -1 -0 -8 -7 -1 -6 -0 -0 -0 -0 -0 -3 -5 -1 -1 -0 -9
-0 -0 -0 -0 -0 -20 -0 -65 -9 -3 -0 -12 -27 -26 -27 -40 -102 -58 -10 -3 -4 -2 -1 -0 -9 -18 -11 -8 -19 -3 -0 -1 -0 -0 -1 -0 -0 -3 -27 -0 -0 -1 -0 -0 -0 -0 -0 -0 -2
-0 -0 -0 -1 -3 -243 -8 -148 -123 -2 -0 -0 -9 -20 -24 -33 -104 -120 -39 -32 -26 -18 -3 -0 -7 -39 -33 -34 -23 -24 -13 -2 -7 -0 -0 -0 -1 -0 -19 -1 -0 -1 -10 -7 -3 -8 -12 -36 -16
-0 -0 -0 -4 -3 -89 -14 -44 -312 -2 -0 -16 -1 -8 -17 -25 -65 -113 -60 -24 -39 -32 -12 -0 -3 -30 -41 -47 -20 -6 -0 -12 -13 -4 -0 -0 -0 -0 -5 -8 -0 -0 -0 -19 -10 -0 -21 -70 -88
-0 -0 -0 -0 -0 -0 -106 -8 -12 -0 -0 -4 -0 -1 -16 -26 -48 -89 -78 -51 -49 -46 -16 -1 -0 -20 -39 -36 -39 -9 -5 -4 -10 -0 -3 -2 -1 -0 -3 -1 -1 -0 -0 -1 -0 -0 -60 -98 -139
-0 -0 -0 -0 -1 -0 -119 -10 -57 -4 -12 -1 -0 -0 -1 -8 -35 -63 -57 -69 -46 -56 -34 -21 -2 -10 -23 -26 -48 -46 -42 -29 -21 -12 -6 -6 -0 -0 -0 -0 -0 -0 -0 -0 -1 -0 -37 -84 -93
-0 -0 -0 -0 -0 -0 -0 -3 -38 -32 -26 -17 -7 -0 -1 -4 -11 -25 -44 -43 -43 -27 -19 -23 -4 -5 -16 -31 -27 -31 -46 -43 -43 -37 -32 -30 -22 -0 -0 -0 -0 -0 -0 -0 -0 -0 -8 -54 -67
-0 -0 -0 -0 -0 -0 -1 -16 -34 -49 -36 -26 -31 -21 -6 -0 -0 -1 -16 -35 -28 -32 -8 -0 -2 -3 -16 -31 -32 -34 -48 -41 -38 -43 -38 -11 -12 -14 -0 -0 -0 -0 -0 -1 -0 -0 -0 -23 -41
Wind_Speed
23 22 18 16 14 14 12 nan nan 9 14 19 23 nan nan nan nan nan nan 16 14 11 15 17 24 18 14 12 11 9 10 10 11 7 8 6 5 3 2 1 2 3 1 2 6 5 3 6 5
19 19 16 18 26 3 7 13 18 15 12 14 16 19 13 15 nan nan nan 15 10 9 22 21 23 17 13 14 11 9 8 10 10 9 7 7 4 4 4 2 1 2 0 2 4 6 5 4 5
27 19 18 18 10 4 2 9 9 9 5 15 12 18 14 16 nan 14 5 13 9 12 12 13 12 12 13 11 12 12 10 10 10 9 7 6 6 4 2 3 1 3 1 2 3 3 5 5 5
16 19 18 20 5 7 9 7 5 5 5 10 20 18 26 21 11 8 6 11 17 13 6 19 13 6 14 12 11 11 11 10 10 10 7 6 6 4 1 1 1 2 1 1 2 3 5 5 6
21 23 12 10 5 6 4 1 5 1 2 8 21 18 12 15 20 11 8 13 8 4 6 8 13 12 15 12 12 13 10 11 10 10 7 6 4 2 3 1 1 2 2 3 4 5 4 5 5
14 19 16 3 7 6 5 3 3 0 2 5 22 17 3 19 18 9 14 9 9 5 6 4 8 11 13 11 12 14 14 13 9 10 8 4 3 2 1 1 0 2 2 3 3 5 6 5 5
31 17 8 4 5 5 2 9 2 6 11 16 19 15 5 10 16 13 14 16 5 5 3 4 7 7 11 11 11 11 12 12 8 7 8 7 5 4 4 3 2 1 2 4 4 4 6 7 7
18 11 1 nan 6 4 6 3 5 7 11 10 21 10 12 5 10 11 12 9 4 7 4 11 2 7 11 9 9 10 8 9 8 9 7 8 8 9 9 9 10 5 5 5 5 5 7 8 10
2 25 6 5 7 8 5 3 2 8 17 16 2 20 14 4 8 11 15 9 8 8 10 5 9 7 8 6 8 8 8 8 8 8 9 12 7 9 11 10 10 9 8 8 7 7 6 11 14
19 nan 3 10 11 11 4 1 7 10 11 13 15 16 15 4 9 6 12 10 6 7 4 4 3 8 4 7 3 9 6 8 8 7 8 11 11 8 5 8 12 11 9 10 10 8 10 13 11
nan 6 10 10 4 3 5 6 8 10 12 17 21 17 13 2 12 6 6 10 7 6 6 5 5 7 5 8 7 6 8 6 3 6 5 1 1 2 4 6 9 11 14 7 8 9 4 nan 3
18 7 11 4 3 4 5 3 6 3 10 15 20 19 9 5 12 6 8 8 8 6 4 6 1 9 4 5 7 6 6 3 3 2 4 5 3 5 5 5 10 11 16 15 8 7 9 1 3
7 18 4 6 4 13 6 8 5 6 11 16 19 18 9 9 11 6 7 8 8 7 5 4 3 5 6 10 6 7 6 5 1 2 7 4 6 9 5 7 7 5 11 13 12 8 12 12 8
9 16 20 16 14 13 14 11 10 9 13 15 17 18 14 9 10 5 8 6 5 5 3 2 3 1 3 6 7 7 6 4 3 5 2 7 8 7 8 7 10 8 13 9 7 9 11 10 6
16 22 22 23 20 16 17 16 17 13 16 13 14 15 14 13 10 7 8 7 8 6 3 2 3 4 3 4 3 6 3 2 3 0 5 6 7 7 7 9 11 8 13 10 4 7 8 7 5
32 25 24 24 26 17 13 21 15 16 14 14 12 11 11 12 10 9 8 9 7 7 5 3 4 7 7 5 2 5 4 2 0 5 5 9 7 6 9 7 11 6 12 15 14 18 10 10 7
nan nan 17 19 24 20 19 11 19 22 19 16 13 11 10 10 11 8 8 9 7 6 5 4 3 4 8 6 4 6 3 5 4 4 3 6 3 3 5 7 7 8 15 13 14 13 15 15 14
nan nan nan 18 19 20 20 10 21 25 24 19 17 14 11 11 12 11 10 8 7 5 5 4 3 3 6 6 4 6 6 7 5 5 5 7 2 2 2 6 6 12 13 9 9 13 14 12 14
nan nan nan nan 16 19 18 15 19 24 24 21 18 18 15 12 10 12 10 7 5 8 7 6 4 6 6 5 6 7 7 6 6 5 6 2 1 4 2 8 3 11 3 4 7 9 10 10 8
nan nan nan nan nan 17 17 18 22 26 25 22 20 18 17 14 14 9 7 8 8 8 7 7 5 8 6 4 6 5 4 5 8 6 6 5 2 3 4 6 3 3 2 4 4 4 6 7 3
nan nan nan nan nan 13 15 9 27 29 27 22 20 16 17 15 15 14 13 11 9 10 8 8 9 10 8 7 4 4 1 2 6 4 6 7 4 7 5 3 6 2 5 4 3 1 1 2 5
nan nan nan nan nan 13 11 nan 42 30 26 24 20 14 15 17 14 15 15 12 11 11 10 8 8 9 7 6 4 6 5 7 7 6 3 2 4 5 1 3 1 2 3 4 8 8 4 4 1
nan nan nan nan nan nan 9 28 14 25 29 29 26 17 11 15 18 14 13 13 12 11 7 8 8 7 6 9 4 7 4 4 2 4 5 4 2 4 2 2 2 5 8 9 5 5 5 3 1
nan nan nan nan nan 13 nan 31 nan 21 24 31 30 25 14 15 nan 12 13 14 11 11 8 7 7 5 7 7 8 4 6 3 2 2 3 3 2 3 1 2 4 7 6 11 12 11 12 8 5
nan nan nan nan nan 21 12 nan nan 12 10 25 32 29 22 14 10 12 13 12 11 9 9 8 10 9 9 9 9 9 7 5 4 3 2 6 4 4 10 5 8 13 12 12 11 14 15 16 9
nan nan nan nan nan nan nan 28 13 4 12 7 27 29 20 16 15 15 13 13 15 12 11 8 10 10 12 13 11 9 7 3 1 2 5 4 3 8 13 9 9 14 17 18 17 22 13 17 11
nan nan nan nan nan nan nan 21 27 14 16 14 18 24 25 16 10 15 15 16 16 12 9 9 10 11 11 14 11 6 4 4 2 4 6 4 5 8 10 10 13 15 20 20 16 17 16 9 5
nan nan nan nan nan nan nan 15 nan 14 19 13 13 14 21 13 9 16 13 16 16 15 15 13 13 13 12 10 8 5 5 4 0 5 4 4 6 6 9 13 14 17 20 20 21 23 24 18 16
nan nan nan nan nan nan nan 26 26 27 29 18 13 6 14 17 12 14 14 16 18 17 16 17 13 10 7 6 5 3 5 4 3 3 7 7 5 8 10 12 16 19 21 21 23 19 25 24 24
nan nan nan nan 10 nan nan 24 30 29 32 24 18 11 10 16 16 15 16 15 14 16 15 14 16 11 5 2 3 4 3 3 5 6 9 10 10 10 11 13 16 19 21 24 25 26 29 28 29
Wind_Direction
58 65 89 85 79 84 204 nan nan 272 240 262 255 nan nan nan nan nan nan 252 266 163 160 175 160 150 148 155 155 149 130 127 132 137 138 132 121 150 170 127 283 237 199 4 341 331 324 356 348
67 71 80 92 80 267 186 216 221 221 257 256 269 288 259 223 nan nan nan 284 295 169 143 145 146 141 145 155 150 128 117 114 120 136 141 135 121 119 123 46 296 200 167 45 4 354 359 12 356
88 73 85 73 160 181 221 222 238 261 279 253 254 232 226 256 nan 322 304 297 278 193 117 110 116 155 146 143 132 125 123 123 119 133 136 132 134 131 68 47 69 126 344 5 24 20 5 6 5
76 79 55 75 185 208 241 259 302 304 230 249 263 246 253 270 291 234 26 52 65 116 162 124 115 165 134 130 123 117 116 125 129 128 133 132 157 169 166 179 11 38 203 13 38 13 23 8 360
75 96 129 340 268 261 244 346 31 248 225 316 285 286 239 249 263 236 112 82 91 133 139 154 165 158 122 134 117 98 110 132 128 115 120 138 160 162 154 175 332 319 7 22 18 9 18 28 14
75 115 49 304 316 333 10 216 99 196 319 312 288 290 253 293 295 303 110 100 88 120 88 123 131 119 118 118 107 106 118 130 124 133 137 132 134 129 106 64 335 313 355 11 16 4 3 24 35
68 58 208 269 338 314 289 68 195 357 335 340 327 299 292 306 330 349 127 106 124 125 124 71 91 125 134 124 110 112 129 127 132 123 122 123 96 65 42 38 44 5 18 17 26 23 10 12 23
99 68 81 nan 352 326 47 225 90 338 308 330 308 325 313 356 352 0 105 102 118 149 82 96 33 95 108 112 120 116 115 115 120 110 115 83 54 37 30 24 13 19 35 27 31 26 20 18 22
179 128 26 264 103 338 26 355 89 347 356 357 307 322 295 18 11 9 104 95 90 67 60 37 105 71 109 120 109 111 107 111 107 93 80 71 67 36 354 316 334 16 43 32 28 24 22 24 21
327 nan 305 300 356 304 300 246 12 10 10 356 302 306 294 90 80 25 85 103 111 106 119 176 88 100 92 95 142 112 91 95 96 92 71 56 57 32 328 328 354 5 27 36 27 20 38 45 22
nan 239 239 229 212 5 270 336 32 18 354 3 341 340 323 89 86 87 87 98 86 90 122 130 124 115 133 184 145 132 103 128 128 120 105 207 351 161 53 19 6 356 4 326 2 345 343 nan 28
355 36 159 208 90 30 37 54 3 137 329 354 354 346 335 82 85 72 87 83 85 86 83 81 177 122 149 134 108 131 109 152 158 40 80 98 70 70 35 7 357 20 335 320 287 237 274 156 248
34 12 109 85 20 39 36 49 337 310 332 341 359 358 4 74 90 75 68 67 61 57 67 65 256 134 169 151 139 149 142 119 227 12 35 100 22 55 358 24 32 27 339 307 289 287 273 268 285
61 50 35 17 12 8 28 32 33 342 341 349 5 14 11 42 83 91 85 78 86 86 90 146 233 167 117 113 153 144 123 122 249 102 313 41 56 52 8 31 39 360 320 300 277 288 247 221 257
27 28 33 21 11 13 23 15 40 356 343 356 15 24 13 22 39 67 78 64 69 62 1 315 56 344 38 57 65 113 95 56 64 64 4 42 77 30 34 45 60 357 348 1 337 3 295 77 43
28 39 5 357 10 22 344 26 19 5 0 0 11 32 25 11 19 30 48 55 38 37 340 350 53 349 1 3 356 63 81 358 21 26 354 9 44 68 74 56 52 58 62 45 60 52 79 74 29
nan nan 318 343 17 8 57 317 3 1 15 10 12 23 33 17 2 19 19 50 3 21 339 34 38 30 324 326 4 77 13 74 43 20 21 348 12 68 71 99 76 74 63 55 59 54 58 39 42
nan nan nan 317 4 27 33 327 356 6 20 17 14 13 30 19 23 6 9 43 339 320 329 11 333 342 321 322 68 60 45 52 35 29 13 267 253 303 75 71 91 90 72 58 49 51 55 53 56
nan nan nan nan 335 19 29 354 360 6 18 10 14 15 20 25 21 349 18 358 342 319 317 330 332 305 348 30 46 58 48 11 14 12 287 320 300 262 117 111 63 75 99 91 66 57 65 80 51
nan nan nan nan nan 41 1 17 5 9 12 1 12 16 16 24 356 351 7 350 1 344 338 328 341 327 11 37 62 45 33 15 351 8 340 343 171 141 88 109 128 156 289 348 72 76 67 71 360
nan nan nan nan nan 46 337 168 5 5 9 5 358 10 16 16 5 354 348 354 353 330 348 347 355 350 7 79 11 348 94 338 341 0 358 9 101 131 118 112 148 76 90 335 349 93 265 95 73
nan nan nan nan nan 347 315 nan 57 2 11 15 10 359 6 8 16 348 355 355 345 337 344 345 349 20 14 25 1 353 340 5 16 16 335 215 132 101 112 81 200 115 161 276 355 333 11 342 30
nan nan nan nan nan nan 347 285 352 6 14 17 22 9 3 9 3 2 360 350 352 336 342 345 355 18 43 348 38 318 355 336 32 94 265 147 259 129 121 256 313 335 37 310 303 287 283 342 2
nan nan nan nan nan 196 nan 265 nan 358 19 16 19 20 0 359 nan 22 360 350 1 342 346 327 330 14 353 342 348 2 327 69 94 128 225 128 253 292 199 304 345 351 341 340 336 306 309 269 263
nan nan nan nan nan 350 28 nan nan 297 343 358 11 17 8 357 11 31 12 1 354 358 338 327 325 351 350 346 344 353 8 2 109 202 278 185 262 273 299 351 339 4 5 356 344 327 298 293 268
nan nan nan nan nan nan nan 244 167 260 305 342 342 0 7 16 28 33 14 8 345 352 338 335 331 346 338 337 340 340 357 15 86 306 179 282 223 281 292 333 357 347 351 356 347 352 346 291 296
nan nan nan nan nan nan nan 353 193 238 264 309 325 353 5 6 344 21 13 6 341 340 332 331 325 342 344 344 327 339 358 62 348 272 290 224 237 262 303 336 354 357 347 360 355 6 16 12 340
nan nan nan nan nan nan nan 330 nan 295 262 248 303 354 2 9 10 351 360 1 347 340 336 336 337 347 2 11 355 31 24 348 345 280 287 287 292 304 305 333 346 358 356 357 359 346 345 348 343
nan nan nan nan nan nan nan 255 253 262 270 248 229 293 356 12 357 347 358 351 348 349 343 335 338 354 1 14 346 23 30 5 5 347 320 318 325 309 328 334 340 352 350 354 352 353 328 335 332
nan nan nan nan 303 nan nan 284 264 259 259 247 234 204 195 345 6 5 356 6 355 343 334 327 323 324 305 282 291 310 23 326 326 328 326 307 315 326 327 333 341 347 346 343 348 353 342 340 328